Regional Weather Roundup
Issued by NWS

Home | Current Version | Previous Version | Text Only | Print | Product List | Glossary Off
Versions: 1 2 3 4 5 6 7 8 9 10 11 12 13 14 15 16 17 18 19 20 21 22 23 24 25 26 27 28 29 30 31 32 33 34 35 36 37 38 39 40 41 42 43 44 45 46 47 48 49 50

000
ASUS43 KIND 271409
RWRIN

WEATHER ROUNDUP FOR INDIANA
NATIONAL WEATHER SERVICE INDIANAPOLIS IN
1000 AM EDT THU APR 27 2017

NOTE: "FAIR" INDICATES FEW OR NO CLOUDS BELOW 12,000 FEET WITH NO
SIGNIFICANT WEATHER AND/OR OBSTRUCTIONS TO VISIBILITY.

* - STATION DOES NOT REPORT WEATHER SUCH AS PRECIPITATION OR FOG.

+ - STATION NOT QUALITY CONTROLLED BY THE NATIONAL WEATHER SERVICE.
    USE DATA WITH CAUTION...ESPECIALLY DEWPOINT AND RELATIVE
    HUMIDITY OBSERVATIONS.

INZ001>003-010>013-019-020-271500-
NORTHWEST INDIANA

CITY           SKY/WX    TMP DP  RH WIND       PRES   REMARKS
GARY /AIRPORT/ CLOUDY    50  45  81 SW26G43   29.44S
KNOX *+        CLOUDY    50  32  50 SW23G29   29.51R
LA PORTE +     CLOUDY    50  46  86 SW16G31   29.50R
MICHIGAN CITY+ CLOUDY    50  45  81 SW22G31   29.49R
MONTICELLO +   CLOUDY    49  44  81 SW21G31   29.56R
RENSSELAER +   CLOUDY    46  43  87 W20G29    29.56R
VALPARAISO     CLOUDY    50  45  83 SW25G36   29.51R

$$

LMZ046-743>745-271500-
SOUTHERN LAKE MICHIGAN

STATION/POSITION TIME  TEMP    WIND        PRES    WAVE
                       AIR SEA DIR/SP/G            HT
                 (UTC) (F)     (DEG/KT/KT) (MB)    (FT)
BURNS HARBOR     1340   49     230/ 19/ 26  999.0R
MICHIGAN CITY    1340   49     200/ 23/ 29   N/A
5NW MICH CITY    1400   48 48                N/A     5

$$

INZ004-005-014>016-021>024-271500-
NORTH CENTRAL INDIANA

CITY           SKY/WX    TMP DP  RH WIND       PRES   REMARKS
ELKHART        PTSUNNY   61  50  67 SW16G25   29.45R
GOSHEN         PTSUNNY   60  51  72 SW28G40   29.47R
LOGANSPORT +   PTSUNNY   52  45  76 W25G40    29.56R
PERU/GRISSOM   CLOUDY    54  50  85 W23G29    29.53R
ROCHESTER +    CLOUDY    54  46  76 SW18G26   29.53R
SOUTH BEND     PTSUNNY   54  47  77 SW31G40   29.48R
WARSAW +       CLOUDY    57  50  77 SW24      29.49R

$$

INZ006>009-017-018-025>027-271500-
NORTHEAST INDIANA

CITY           SKY/WX    TMP DP  RH WIND       PRES   REMARKS
ANGOLA *+      PTSUNNY   64  55  72 SW15      29.47S
AUBURN +       PTSUNNY   64  54  68 SW15G23   29.50S
FORT WAYNE     CLOUDY    65  55  70 S26       29.50S
HUNTINGTON +   CLOUDY    63  56  80 SW14G21   29.50S
KENDALLVILLE + CLOUDY    64  55  74 SW22G31   29.48S

$$

INZ028-029-035-036-043>045-051>053-271500-
WEST CENTRAL INDIANA

CITY           SKY/WX    TMP DP  RH WIND       PRES   REMARKS
CRAWFORDSVL +  CLOUDY    47  47 100 W10G17    29.61R
GREENCASTLE +  CLOUDY    50  46  87 W12G21    29.62R
LAFAYETTE      CLOUDY    48  45  89 W15       29.59R
TERRE HAUTE    CLOUDY    50  44  80 W17G24    29.64R

$$

INZ030>032-037>040-046>048-054>057-064-065-271500-
CENTRAL INDIANA

CITY           SKY/WX    TMP DP  RH WIND       PRES   REMARKS
CP ATTERBURY + CLOUDY    61  54  77 SW20      29.60R
COLUMBUS       CLOUDY    63  55  77 SW18G25   29.59R
FRANKFORT +    CLOUDY    53  49  85 W22G29    29.60R
GREENWOOD *+   CLOUDY    59  52  78 SW16G24   29.60R
INDIANAPOLIS   CLOUDY    54  51  90 W20       29.59R
-EAGLE CREEK   CLOUDY    55  49  80 W10G23    29.58R
KOKOMO +       PTSUNNY   55  49  80 W24G31    29.55R
MARION +       LGT RAIN  57  54  88 W22G29    29.55R
MT COMFORT *+  CLOUDY    59  54  82 W16       29.58R
SHELBYVILLE    CLOUDY    65  55  70 SW21G28   29.57R
ZIONSVILLE +   CLOUDY    51  48  88 W22G28    29.59R

$$

INZ033-034-041-042-049-050-058-059-271500-
EAST CENTRAL INDIANA

CITY           SKY/WX    TMP DP  RH WIND       PRES   REMARKS
MUNCIE         CLOUDY    65  55  70 SW10G22   29.54R
RICHMOND +     RAIN      57  55  94 SW15      29.61R

$$

INZ060-061-067>069-081>083-085>088-271500-
SOUTHWEST INDIANA

CITY           SKY/WX    TMP DP  RH WIND       PRES   REMARKS
EVANSVILLE     CLOUDY    53  47  79 W12       29.70R
HUNTINGBURG *+ CLOUDY    53  49  86 W15G22    29.68R
WASHINGTON +   CLOUDY    52  47  81 W10G20    29.67R

$$

INZ062-063-066-070>080-084-089>092-271500-
SOUTH CENTRAL AND SOUTHEAST INDIANA

CITY           SKY/WX    TMP DP  RH WIND       PRES   REMARKS
BLOOMINGTON    CLOUDY    52  47  83 W14G23    29.63R
MADISON *+     CLOUDY    63  59  88 S10       29.63S
SEYMOUR +      CLOUDY    64  57  77 W20       29.60R

$$




USA.gov is the U.S. government's official web portal to all federal, state and local government web resources and services.